Tracking 35334 objects as of 13-Sep-2026
HD Live streaming from Space Station
objects crossing your sky now

LEMUR 2 KAREN_B


LEMUR 2 KAREN_B is no longer on orbit
LEMUR 2 KAREN_B is classified as:


NORAD ID: 52736
Int'l Code: 2022-057E
Launch date: May 25, 2022
Source: United States (US)
Launch site: AIR FORCE EASTERN TEST RANGE (AFETR)
Decay date: 2024-02-02
Your satellite tracking list
Your tracking list is empty




NASA's NSSDC Master Catalog

Two Line Element Set (TLE):
1 52736U 22057E   24031.78359491  .05908242  25498-5  13666-2 0  9992
2 52736  97.5278 164.8466 0010516 302.2680  57.7594 16.29794343 94178
Source of the keplerian elements: AFSPC